Flag for U.S.A. Weather past 2 weeks in Antioch, California, U.S.A.

Now
68 °F

Sunny.


Feels Like: 68 °F
Forecast: 38 / 69 °F
Wind: 7 mph from North

Location: Buchanan Field

Current Time: Mar 5, 2015 at 2:39:29 PM

Latest Report: Mar 5, 2015 at 1:53 PM


Visibility: 10 mi

Pressure: 30.26 "Hg

Humidity: 38%

Dew point: 41 °F

Location of AntiochLocation

Historic Weather in Antioch — Graph

°F

Antioch temperature yesterday

Maximum temperature yesterday: 69 °F (at 2:53 PM)
Minimum temperature yesterday: 42 °F (at 6:53 AM)
Average temperature yesterday: 55 °F

Past Weeks' High & Low Weather Summary

 TemperatureHumidityPressure
High73 °F (Feb 26, 2:53 PM)97% (Feb 19, 7:53 AM)30.32 "Hg (Feb 19, 7:53 AM)
Low36 °F (Feb 24, 4:53 AM)9% (Feb 24, 11:53 AM)29.68 "Hg (Feb 28, 3:53 AM)
Average55 °F62%29.98 "Hg
* Reported Feb 18 12:53 PM — Mar 5 12:53 PM, Antioch, Weather by CustomWeather, © 2015

Note: Actual official high and low records may vary slightly from our data, if they occured in-between our weather recording intervals... More about our weather records

Advertising

Antioch weather history for previous 24 hours

 ConditionsComfort  
Time TempWeatherWind HumidityBarometerVisibility
12:53 PM
Thu, Mar 5
67 °FSunny.8 mph39%30.28 "Hg10 mi
11:53 AM64 °FSunny.8 mph43%30.30 "Hg10 mi
10:53 AM62 °FSunny.9 mph46%30.31 "Hg10 mi
9:53 AM59 °FSunny.5 mph49%30.32 "Hg10 mi
8:53 AM52 °FSunny.No wind61%30.32 "Hg10 mi
7:53 AM46 °FSunny.No wind71%30.30 "Hg10 mi
6:53 AM42 °FSunny.5 mph76%30.28 "Hg10 mi
5:53 AM42 °FClear.3 mph73%30.25 "Hg10 mi
4:53 AM43 °FClear.3 mph74%30.23 "Hg10 mi
3:53 AM44 °FClear.No wind68%30.21 "Hg10 mi
2:53 AM47 °FClear.3 mph64%30.21 "Hg10 mi
1:53 AM47 °FClear.7 mph64%30.21 "Hg10 mi
12:53 AM47 °FClear.3 mph66%30.20 "Hg10 mi
11:53 PM
Wed, Mar 4
49 °FClear.3 mph61%30.19 "Hg10 mi
10:53 PM49 °FClear.6 mph61%30.19 "Hg10 mi
9:53 PM52 °FClear.5 mph55%30.17 "Hg10 mi
8:53 PM54 °FClear.3 mph51%30.16 "Hg10 mi
7:53 PM57 °FClear.No wind49%30.14 "Hg10 mi
6:53 PM60 °FClear.3 mph42%30.12 "Hg10 mi
5:53 PM64 °FSunny.5 mph34%30.10 "Hg10 mi
4:53 PM67 °FSunny.6 mph33%30.09 "Hg10 mi
3:53 PM68 °FSunny.No wind25%30.09 "Hg10 mi
2:53 PM69 °FSunny.5 mph24%30.09 "Hg10 mi
Weather by CustomWeather, © 2015

See weather overviewHow to use our weather pages